Check out our new BloomSky Weather System.

Active alerts


No alerts


Thunder radar  blitzortung!


Rain radar more information rain snow radar


Visit our other weather sites:

Template documentation
and downloads

And another site



Weather Underground History page Text

Daily Summary for May 19, 2017 Units:  Metric    English   Both
« Previous Day
Next Day »
Daily Weekly Monthly Yearly Custom
  High: Low: Average:
Temperature: 32.6 °C 25.5 °C 28.1 °C
Dew Point: 24.6 °C 23.2 °C 23.8 °C
Humidity: 88 % 59 % 78 %
Wind Speed: 30.6 km/h 1.6 km/h 10.5 km/h
Wind Gust: 35.4 km/h - -
Wind:- - SE
Pressure: 1010 hPa 1007.7 hPa -
Precipitation: 0 mm    
Historical Graphs
 
 
Tabular Data for May 19, 2017
Time Temperature Dew Point Pressure Wind Wind Speed Wind Gust Humidity Rainfall Rate (Hourly)
00:03 26.4 °C 23.3 °C 1010 hPa SE 6.4 km/h 19.3 km/h 83 % 0 mm
00:08 26.4 °C 23.3 °C 1010 hPa SE 6.4 km/h 16.1 km/h 83 % 0 mm
00:13 26.4 °C 23.3 °C 1010 hPa SE 4.8 km/h 11.3 km/h 83 % 0 mm
00:18 26.4 °C 23.3 °C 1010 hPa SE 4.8 km/h 12.9 km/h 83 % 0 mm
00:23 26.4 °C 23.3 °C 1010 hPa SSE 4.8 km/h 12.9 km/h 83 % 0 mm
00:28 26.4 °C 23.3 °C 1009.7 hPa SE 8 km/h 12.9 km/h 83 % 0 mm
00:33 26.4 °C 23.3 °C 1009.7 hPa ESE 4.8 km/h 16.1 km/h 83 % 0 mm
00:38 26.4 °C 23.3 °C 1009.7 hPa SSE 6.4 km/h 16.1 km/h 83 % 0 mm
00:43 26.3 °C 23.2 °C 1009.7 hPa SE 12.9 km/h 16.1 km/h 83 % 0 mm
00:48 26.3 °C 23.2 °C 1009.7 hPa SE 6.4 km/h 16.1 km/h 83 % 0 mm
00:53 26.3 °C 23.2 °C 1009.7 hPa SE 3.2 km/h 12.9 km/h 83 % 0 mm
00:58 26.3 °C 23.2 °C 1009.7 hPa SSE 4.8 km/h 12.9 km/h 83 % 0 mm
01:03 26.3 °C 23.2 °C 1009.7 hPa SE 4.8 km/h 12.9 km/h 83 % 0 mm
01:08 26.3 °C 23.2 °C 1009.7 hPa SSE 17.7 km/h 17.7 km/h 83 % 0 mm
01:13 26.3 °C 23.2 °C 1009.7 hPa ESE 9.7 km/h 17.7 km/h 83 % 0 mm
01:18 26.3 °C 23.2 °C 1009.7 hPa ESE 6.4 km/h 17.7 km/h 83 % 0 mm
01:23 26.2 °C 23.3 °C 1009.4 hPa SE 6.4 km/h 17.7 km/h 84 % 0 mm
01:28 26.2 °C 23.3 °C 1009.4 hPa ESE 11.3 km/h 12.9 km/h 84 % 0 mm
01:33 26.2 °C 23.3 °C 1009.4 hPa SE 4.8 km/h 19.3 km/h 84 % 0 mm
01:38 26.3 °C 23.4 °C 1009.4 hPa SSE 9.7 km/h 19.3 km/h 84 % 0 mm
01:43 26.2 °C 23.3 °C 1009.4 hPa ESE 8 km/h 19.3 km/h 84 % 0 mm
01:48 26.2 °C 23.3 °C 1009.7 hPa ESE 8 km/h 14.5 km/h 84 % 0 mm
01:53 26.2 °C 23.3 °C 1009.4 hPa ESE 14.5 km/h 16.1 km/h 84 % 0 mm
01:58 26.3 °C 23.4 °C 1009.4 hPa SE 8 km/h 17.7 km/h 84 % 0 mm
01:59 26.2 °C 23.3 °C 1009.4 hPa ENE 6.4 km/h 17.7 km/h 84 % 0 mm
02:04 26.2 °C 23.3 °C 1009.4 hPa SSE 9.7 km/h 17.7 km/h 84 % 0 mm
02:09 26.2 °C 23.3 °C 1009.4 hPa South 9.7 km/h 17.7 km/h 84 % 0 mm
02:14 26.2 °C 23.5 °C 1009.4 hPa SE 4.8 km/h 14.5 km/h 85 % 0 mm
02:19 26.2 °C 23.5 °C 1009.4 hPa ESE 20.9 km/h 20.9 km/h 85 % 0 mm
02:24 26.2 °C 23.5 °C 1009.4 hPa South 4.8 km/h 20.9 km/h 85 % 0 mm
02:29 26.2 °C 23.5 °C 1009.4 hPa SSW 6.4 km/h 20.9 km/h 85 % 0 mm
02:34 26.1 °C 23.4 °C 1009.4 hPa SSE 8 km/h 20.9 km/h 85 % 0 mm
02:39 26.1 °C 23.4 °C 1009.4 hPa SSE 6.4 km/h 16.1 km/h 85 % 0 mm
02:44 26.1 °C 23.4 °C 1009 hPa ESE 8 km/h 12.9 km/h 85 % 0 mm
02:49 26 °C 23.5 °C 1009 hPa SE 9.7 km/h 14.5 km/h 86 % 0 mm
02:52 26 °C 23.5 °C 1009 hPa ESE 8 km/h 14.5 km/h 86 % 0 mm
02:57 26 °C 23.5 °C 1009.4 hPa SW 4.8 km/h 14.5 km/h 86 % 0 mm
03:02 26 °C 23.5 °C 1009.4 hPa SSE 3.2 km/h 12.9 km/h 86 % 0 mm
03:07 25.9 °C 23.4 °C 1009.4 hPa SSE 8 km/h 12.9 km/h 86 % 0 mm
03:12 25.9 °C 23.4 °C 1009.4 hPa ESE 4.8 km/h 12.9 km/h 86 % 0 mm
03:17 25.8 °C 23.3 °C 1009.4 hPa ESE 4.8 km/h 11.3 km/h 86 % 0 mm
03:22 25.8 °C 23.5 °C 1009.4 hPa SE 6.4 km/h 11.3 km/h 87 % 0 mm
03:27 25.7 °C 23.4 °C 1009.4 hPa SE 6.4 km/h 11.3 km/h 87 % 0 mm
03:32 25.7 °C 23.4 °C 1009.4 hPa ESE 11.3 km/h 11.3 km/h 87 % 0 mm
03:37 25.7 °C 23.4 °C 1009.4 hPa South 4.8 km/h 12.9 km/h 87 % 0 mm
03:42 25.7 °C 23.4 °C 1009.4 hPa SE 6.4 km/h 12.9 km/h 87 % 0 mm
03:47 25.8 °C 23.5 °C 1009.4 hPa East 8 km/h 14.5 km/h 87 % 0 mm
03:52 25.8 °C 23.5 °C 1009.4 hPa SE 6.4 km/h 14.5 km/h 87 % 0 mm
03:57 25.8 °C 23.5 °C 1009.4 hPa ESE 11.3 km/h 14.5 km/h 87 % 0 mm
04:03 25.8 °C 23.5 °C 1009.4 hPa East 6.4 km/h 14.5 km/h 87 % 0 mm
04:08 25.9 °C 23.6 °C 1009.4 hPa SE 6.4 km/h 14.5 km/h 87 % 0 mm
04:13 25.9 °C 23.6 °C 1009.4 hPa ESE 9.7 km/h 12.9 km/h 87 % 0 mm
04:18 25.9 °C 23.6 °C 1009.4 hPa East 9.7 km/h 16.1 km/h 87 % 0 mm
04:23 25.9 °C 23.6 °C 1009.4 hPa East 4.8 km/h 16.1 km/h 87 % 0 mm
04:28 25.9 °C 23.6 °C 1009.4 hPa ESE 4.8 km/h 16.1 km/h 87 % 0 mm
04:33 25.9 °C 23.6 °C 1009.4 hPa SE 3.2 km/h 12.9 km/h 87 % 0 mm
04:38 25.9 °C 23.6 °C 1009.4 hPa SSE 3.2 km/h 17.7 km/h 87 % 0 mm
04:43 25.8 °C 23.5 °C 1009.4 hPa SE 4.8 km/h 17.7 km/h 87 % 0 mm
04:48 25.8 °C 23.5 °C 1009.4 hPa SE 4.8 km/h 17.7 km/h 87 % 0 mm
04:53 25.9 °C 23.6 °C 1009.4 hPa South 6.4 km/h 16.1 km/h 87 % 0 mm
04:58 25.8 °C 23.5 °C 1009.4 hPa SSE 4.8 km/h 16.1 km/h 87 % 0 mm
04:59 25.8 °C 23.5 °C 1009.4 hPa SE 8 km/h 16.1 km/h 87 % 0 mm
05:04 25.8 °C 23.5 °C 1009.4 hPa SSE 6.4 km/h 16.1 km/h 87 % 0 mm
05:09 25.8 °C 23.5 °C 1009.4 hPa SE 6.4 km/h 17.7 km/h 87 % 0 mm
05:14 25.8 °C 23.5 °C 1009.4 hPa SE 9.7 km/h 17.7 km/h 87 % 0 mm
05:19 25.8 °C 23.5 °C 1009.4 hPa SE 8 km/h 19.3 km/h 87 % 0 mm
05:24 25.8 °C 23.5 °C 1009.4 hPa SE 4.8 km/h 19.3 km/h 87 % 0 mm
05:29 25.8 °C 23.5 °C 1009 hPa South 6.4 km/h 19.3 km/h 87 % 0 mm
05:34 25.7 °C 23.4 °C 1009 hPa SSE 8 km/h 16.1 km/h 87 % 0 mm
05:39 25.7 °C 23.4 °C 1009.4 hPa SE 8 km/h 16.1 km/h 87 % 0 mm
05:44 25.7 °C 23.4 °C 1009.4 hPa SE 6.4 km/h 16.1 km/h 87 % 0 mm
05:49 25.7 °C 23.4 °C 1009.4 hPa SE 8 km/h 14.5 km/h 87 % 0 mm
05:54 25.7 °C 23.4 °C 1009.4 hPa SSE 6.4 km/h 14.5 km/h 87 % 0 mm
05:59 25.7 °C 23.4 °C 1009.4 hPa SSE 8 km/h 14.5 km/h 87 % 0 mm
06:04 25.7 °C 23.4 °C 1009.4 hPa SSE 4.8 km/h 14.5 km/h 87 % 0 mm
06:09 25.6 °C 23.3 °C 1009.4 hPa East 1.6 km/h 14.5 km/h 87 % 0 mm
06:14 25.6 °C 23.5 °C 1009.4 hPa ESE 6.4 km/h 14.5 km/h 88 % 0 mm
06:19 25.6 °C 23.5 °C 1009.4 hPa SE 4.8 km/h 9.7 km/h 88 % 0 mm
06:24 25.5 °C 23.4 °C 1009.4 hPa ESE 8 km/h 14.5 km/h 88 % 0 mm
06:29 25.5 °C 23.4 °C 1009 hPa East 8 km/h 14.5 km/h 88 % 0 mm
06:34 25.5 °C 23.4 °C 1009 hPa ESE 4.8 km/h 14.5 km/h 88 % 0 mm
06:39 25.6 °C 23.5 °C 1009 hPa ESE 6.4 km/h 12.9 km/h 88 % 0 mm
06:44 25.6 °C 23.5 °C 1009 hPa SSE 9.7 km/h 16.1 km/h 88 % 0 mm
06:49 25.6 °C 23.5 °C 1009 hPa SE 6.4 km/h 16.1 km/h 88 % 0 mm
06:54 25.6 °C 23.5 °C 1009 hPa ESE 4.8 km/h 16.1 km/h 88 % 0 mm
06:59 25.7 °C 23.6 °C 1009 hPa ESE 4.8 km/h 16.1 km/h 88 % 0 mm
07:04 25.7 °C 23.6 °C 1009.4 hPa SSE 3.2 km/h 16.1 km/h 88 % 0 mm
07:09 25.8 °C 23.7 °C 1009.4 hPa South 8 km/h 16.1 km/h 88 % 0 mm
07:14 25.8 °C 23.5 °C 1009.4 hPa SE 6.4 km/h 16.1 km/h 87 % 0 mm
07:19 25.9 °C 23.8 °C 1009.4 hPa East 3.2 km/h 14.5 km/h 88 % 0 mm
07:24 26.1 °C 23.8 °C 1009.4 hPa SSE 4.8 km/h 12.9 km/h 87 % 0 mm
07:29 26.2 °C 23.9 °C 1009.4 hPa SSE 4.8 km/h 12.9 km/h 87 % 0 mm
07:34 26.2 °C 23.9 °C 1009.4 hPa SE 1.6 km/h 14.5 km/h 87 % 0 mm
07:39 26.3 °C 24 °C 1009.4 hPa South 3.2 km/h 14.5 km/h 87 % 0 mm
07:44 26.4 °C 23.9 °C 1009.4 hPa ESE 9.7 km/h 16.1 km/h 86 % 0 mm
07:49 26.5 °C 24 °C 1009.4 hPa SE 8 km/h 17.7 km/h 86 % 0 mm
07:54 26.6 °C 24.1 °C 1009.4 hPa ESE 6.4 km/h 17.7 km/h 86 % 0 mm
07:59 26.7 °C 24 °C 1009.4 hPa SE 9.7 km/h 17.7 km/h 85 % 0 mm
08:04 26.6 °C 23.9 °C 1009.4 hPa South 4.8 km/h 20.9 km/h 85 % 0 mm
08:09 26.7 °C 24 °C 1009.4 hPa ESE 14.5 km/h 20.9 km/h 85 % 0 mm
08:14 26.8 °C 23.9 °C 1009.4 hPa SE 8 km/h 20.9 km/h 84 % 0 mm
08:19 26.9 °C 24 °C 1009.4 hPa East 11.3 km/h 20.9 km/h 84 % 0 mm
08:24 26.9 °C 23.8 °C 1009.4 hPa SE 11.3 km/h 20.9 km/h 83 % 0 mm
08:26 26.9 °C 23.8 °C 1009.4 hPa ESE 11.3 km/h 24.1 km/h 83 % 0 mm
08:30 27.1 °C 23.8 °C 1009.4 hPa South 9.7 km/h 24.1 km/h 82 % 0 mm
08:35 27.2 °C 23.9 °C 1009.4 hPa South 8 km/h 30.6 km/h 82 % 0 mm
08:40 27.4 °C 24.1 °C 1009.4 hPa ESE 11.3 km/h 30.6 km/h 82 % 0 mm
08:45 27.6 °C 24.2 °C 1009.4 hPa SE 9.7 km/h 30.6 km/h 82 % 0 mm
08:50 27.9 °C 23.9 °C 1009.4 hPa SE 11.3 km/h 17.7 km/h 79 % 0 mm
08:55 28 °C 23.8 °C 1009.4 hPa South 9.7 km/h 20.9 km/h 78 % 0 mm
09:00 27.8 °C 23.6 °C 1009.4 hPa SSW 12.9 km/h 22.5 km/h 78 % 0 mm
09:05 27.9 °C 23.9 °C 1009.7 hPa SE 16.1 km/h 22.5 km/h 79 % 0 mm
09:10 27.9 °C 23.7 °C 1009.7 hPa SSE 16.1 km/h 27.4 km/h 78 % 0 mm
09:15 27.8 °C 23.4 °C 1009.7 hPa ESE 20.9 km/h 27.4 km/h 77 % 0 mm
09:20 27.8 °C 23.6 °C 1009.7 hPa SE 12.9 km/h 27.4 km/h 78 % 0 mm
09:25 28.1 °C 23.9 °C 1009.7 hPa SE 12.9 km/h 25.7 km/h 78 % 0 mm
09:31 28.2 °C 23.8 °C 1009.7 hPa ESE 19.3 km/h 25.7 km/h 77 % 0 mm
09:36 28.4 °C 24 °C 1009.7 hPa ESE 16.1 km/h 24.1 km/h 77 % 0 mm
09:41 28.7 °C 23.8 °C 1009.7 hPa SSE 8 km/h 35.4 km/h 75 % 0 mm
09:46 28.9 °C 23.8 °C 1009.7 hPa ESE 24.1 km/h 35.4 km/h 74 % 0 mm
09:51 29.1 °C 24.2 °C 1009.7 hPa SSE 11.3 km/h 35.4 km/h 75 % 0 mm
09:56 29.3 °C 24 °C 1009.7 hPa South 12.9 km/h 25.7 km/h 73 % 0 mm
10:01 29.2 °C 24.1 °C 1009.7 hPa SSE 8 km/h 25.7 km/h 74 % 0 mm
10:06 29.3 °C 23.7 °C 1009.7 hPa SSW 9.7 km/h 25.7 km/h 72 % 0 mm
10:11 29.3 °C 23.7 °C 1009.7 hPa SE 12.9 km/h 29 km/h 72 % 0 mm
10:16 29.4 °C 24 °C 1009.7 hPa ESE 20.9 km/h 29 km/h 73 % 0 mm
10:21 29.6 °C 23.5 °C 1009.7 hPa SSE 22.5 km/h 29 km/h 70 % 0 mm
10:26 29.6 °C 23.5 °C 1009.7 hPa SE 20.9 km/h 35.4 km/h 70 % 0 mm
10:31 29.4 °C 23.6 °C 1009.7 hPa South 8 km/h 35.4 km/h 71 % 0 mm
10:36 29.4 °C 23.8 °C 1009.7 hPa SSE 20.9 km/h 35.4 km/h 72 % 0 mm
10:41 29.4 °C 23.6 °C 1009.7 hPa East 22.5 km/h 25.7 km/h 71 % 0 mm
10:46 29.2 °C 23.6 °C 1009.7 hPa ESE 9.7 km/h 29 km/h 72 % 0 mm
10:51 29.2 °C 23.6 °C 1009.7 hPa ESE 9.7 km/h 29 km/h 72 % 0 mm
10:56 29.6 °C 24 °C 1009.7 hPa ESE 20.9 km/h 29 km/h 72 % 0 mm
11:01 29.6 °C 23.8 °C 1009.7 hPa East 25.7 km/h 30.6 km/h 71 % 0 mm
11:06 29.4 °C 23.6 °C 1009.7 hPa SSE 19.3 km/h 30.6 km/h 71 % 0 mm
11:11 29.8 °C 23.7 °C 1009.7 hPa ESE 12.9 km/h 30.6 km/h 70 % 0 mm
11:16 29.9 °C 23.6 °C 1009.7 hPa SE 20.9 km/h 29 km/h 69 % 0 mm
11:21 29.7 °C 23.6 °C 1009.7 hPa SSE 16.1 km/h 29 km/h 70 % 0 mm
11:26 29.9 °C 23.3 °C 1009.7 hPa ESE 11.3 km/h 29 km/h 68 % 0 mm
11:27 29.9 °C 23.3 °C 1009.7 hPa SSE 12.9 km/h 29 km/h 68 % 0 mm
11:32 30.2 °C 23.6 °C 1009.7 hPa SSW 11.3 km/h 29 km/h 68 % 0 mm
11:37 30.4 °C 23.8 °C 1009.7 hPa South 12.9 km/h 29 km/h 68 % 0 mm
11:42 30.2 °C 23.6 °C 1009.7 hPa SE 14.5 km/h 29 km/h 68 % 0 mm
11:47 30.2 °C 23.9 °C 1009.7 hPa SE 17.7 km/h 27.4 km/h 69 % 0 mm
11:52 30.6 °C 23.8 °C 1009.7 hPa SSW 9.7 km/h 27.4 km/h 67 % 0 mm
11:57 30.7 °C 23.9 °C 1009.7 hPa SE 14.5 km/h 25.7 km/h 67 % 0 mm
12:02 30.2 °C 23.6 °C 1009.7 hPa ESE 9.7 km/h 25.7 km/h 68 % 0 mm
12:07 29.8 °C 23.5 °C 1009.7 hPa SE 16.1 km/h 29 km/h 69 % 0 mm
12:12 29.9 °C 23.6 °C 1009.7 hPa SE 16.1 km/h 29 km/h 69 % 0 mm
12:17 29.8 °C 23.5 °C 1009.7 hPa SE 11.3 km/h 29 km/h 69 % 0 mm
12:22 29.8 °C 23.5 °C 1009.7 hPa SSE 17.7 km/h 27.4 km/h 69 % 0 mm
12:27 29.9 °C 23.3 °C 1009.7 hPa SSW 8 km/h 27.4 km/h 68 % 0 mm
12:32 30.5 °C 23.7 °C 1009.7 hPa SSW 11.3 km/h 27.4 km/h 67 % 0 mm
12:37 30.6 °C 23.5 °C 1009.7 hPa South 22.5 km/h 27.4 km/h 66 % 0 mm
12:42 30.6 °C 23.8 °C 1009.4 hPa SE 11.3 km/h 32.2 km/h 67 % 0 mm
12:47 30.9 °C 23.8 °C 1009.4 hPa ESE 25.7 km/h 32.2 km/h 66 % 0 mm
12:52 31.1 °C 23.7 °C 1009.4 hPa ESE 24.1 km/h 33.8 km/h 65 % 0 mm
12:57 31.1 °C 23.5 °C 1009.4 hPa South 22.5 km/h 33.8 km/h 64 % 0 mm
13:02 31 °C 23.9 °C 1009.4 hPa SE 12.9 km/h 33.8 km/h 66 % 0 mm
13:07 31.2 °C 23.8 °C 1009.4 hPa SE 24.1 km/h 30.6 km/h 65 % 0 mm
13:12 31.4 °C 23.5 °C 1009.4 hPa SE 16.1 km/h 32.2 km/h 63 % 0 mm
13:17 31.1 °C 24 °C 1009.4 hPa ESE 11.3 km/h 33.8 km/h 66 % 0 mm
13:23 31.2 °C 24.1 °C 1009 hPa SE 12.9 km/h 33.8 km/h 66 % 0 mm
13:28 31.3 °C 24.2 °C 1009 hPa ESE 19.3 km/h 33.8 km/h 66 % 0 mm
13:38 31.4 °C 24.3 °C 1009 hPa ESE 14.5 km/h 30.6 km/h 66 % 0 mm
13:43 31.6 °C 24 °C 1009 hPa SE 14.5 km/h 30.6 km/h 64 % 0 mm
13:48 31.4 °C 24 °C 1009 hPa ESE 27.4 km/h 30.6 km/h 65 % 0 mm
13:53 31.8 °C 24.1 °C 1009 hPa SE 24.1 km/h 29 km/h 64 % 0 mm
13:58 31.8 °C 24.1 °C 1008.7 hPa SE 16.1 km/h 29 km/h 64 % 0 mm
14:03 31.8 °C 23.9 °C 1008.7 hPa SSE 30.6 km/h 32.2 km/h 63 % 0 mm
14:08 31.8 °C 24.1 °C 1008.7 hPa SSE 9.7 km/h 32.2 km/h 64 % 0 mm
14:13 31.7 °C 23.5 °C 1008.7 hPa ESE 24.1 km/h 32.2 km/h 62 % 0 mm
14:18 32 °C 24.1 °C 1008.7 hPa SE 16.1 km/h 32.2 km/h 63 % 0 mm
14:23 31.9 °C 23.7 °C 1008.7 hPa South 14.5 km/h 32.2 km/h 62 % 0 mm
14:28 31.8 °C 23.9 °C 1008.4 hPa SE 16.1 km/h 33.8 km/h 63 % 0 mm
14:33 31.6 °C 24 °C 1008.4 hPa ESE 11.3 km/h 33.8 km/h 64 % 0 mm
14:38 31.7 °C 23.5 °C 1008.4 hPa SE 16.1 km/h 33.8 km/h 62 % 0 mm
14:43 31.9 °C 23.4 °C 1008.4 hPa SSE 16.1 km/h 33.8 km/h 61 % 0 mm
14:48 32.1 °C 23.9 °C 1008.4 hPa ESE 17.7 km/h 32.2 km/h 62 % 0 mm
14:53 32.1 °C 23.6 °C 1008.7 hPa South 22.5 km/h 32.2 km/h 61 % 0 mm
14:58 32.4 °C 23.6 °C 1008.4 hPa ESE 14.5 km/h 32.2 km/h 60 % 0 mm
15:03 32.2 °C 23.4 °C 1008.4 hPa SE 14.5 km/h 29 km/h 60 % 0 mm
15:08 32.2 °C 24 °C 1008.4 hPa SSE 14.5 km/h 29 km/h 62 % 0 mm
15:13 31.9 °C 23.7 °C 1008.4 hPa SSE 8 km/h 27.4 km/h 62 % 0 mm
15:28 32.6 °C 23.5 °C 1008.4 hPa ESE 20.9 km/h 30.6 km/h 59 % 0 mm
15:33 32.3 °C 23.3 °C 1008.4 hPa SE 12.9 km/h 30.6 km/h 59 % 0 mm
15:38 32.1 °C 23.6 °C 1008.4 hPa ESE 24.1 km/h 30.6 km/h 61 % 0 mm
15:43 31.7 °C 23.3 °C 1008.4 hPa SSE 12.9 km/h 30.6 km/h 61 % 0 mm
15:48 31.6 °C 23.4 °C 1008.4 hPa SE 20.9 km/h 30.6 km/h 62 % 0 mm
15:54 31.4 °C 23.5 °C 1008.4 hPa ESE 12.9 km/h 30.6 km/h 63 % 0 mm
15:59 31.7 °C 23.8 °C 1008.4 hPa ESE 11.3 km/h 27.4 km/h 63 % 0 mm
16:04 31.9 °C 23.7 °C 1008.4 hPa SE 11.3 km/h 27.4 km/h 62 % 0 mm
16:09 31.4 °C 23.5 °C 1008 hPa ESE 14.5 km/h 24.1 km/h 63 % 0 mm
16:14 31.3 °C 23.7 °C 1008.4 hPa SSE 14.5 km/h 27.4 km/h 64 % 0 mm
16:19 31.4 °C 24.3 °C 1008 hPa SE 9.7 km/h 27.4 km/h 66 % 0 mm
16:24 31.5 °C 24.6 °C 1008 hPa ESE 12.9 km/h 27.4 km/h 67 % 0 mm
16:29 31.4 °C 24.5 °C 1008 hPa SE 9.7 km/h 25.7 km/h 67 % 0 mm
16:34 30.9 °C 24.3 °C 1008 hPa East 17.7 km/h 25.7 km/h 68 % 0 mm
16:38 30.5 °C 24.2 °C 1008 hPa East 11.3 km/h 25.7 km/h 69 % 0 mm
16:43 30.4 °C 24.3 °C 1008 hPa ESE 14.5 km/h 25.7 km/h 70 % 0 mm
16:48 30.8 °C 24.4 °C 1008 hPa ESE 24.1 km/h 27.4 km/h 69 % 0 mm
16:53 30.9 °C 24.5 °C 1008 hPa East 14.5 km/h 27.4 km/h 69 % 0 mm
16:58 30.9 °C 24.3 °C 1007.7 hPa ESE 14.5 km/h 27.4 km/h 68 % 0 mm
17:03 30.8 °C 24.2 °C 1008 hPa SW 11.3 km/h 29 km/h 68 % 0 mm
17:08 30.6 °C 24 °C 1007.7 hPa East 12.9 km/h 29 km/h 68 % 0 mm
17:13 30.6 °C 24.3 °C 1007.7 hPa East 11.3 km/h 29 km/h 69 % 0 mm
17:18 30.6 °C 24.3 °C 1007.7 hPa ESE 14.5 km/h 24.1 km/h 69 % 0 mm
17:23 30.3 °C 24.2 °C 1008 hPa SE 12.9 km/h 32.2 km/h 70 % 0 mm
17:28 30.1 °C 24.5 °C 1007.7 hPa NE 16.1 km/h 33.8 km/h 72 % 0 mm
17:33 30.1 °C 24.5 °C 1007.7 hPa SE 8 km/h 33.8 km/h 72 % 0 mm
17:38 30.2 °C 24.4 °C 1007.7 hPa ESE 19.3 km/h 33.8 km/h 71 % 0 mm
17:43 30.2 °C 24.6 °C 1007.7 hPa ESE 16.1 km/h 29 km/h 72 % 0 mm
17:48 29.9 °C 24.1 °C 1007.7 hPa ESE 17.7 km/h 29 km/h 71 % 0 mm
17:53 29.7 °C 24.1 °C 1007.7 hPa SE 12.9 km/h 30.6 km/h 72 % 0 mm
17:58 29.6 °C 24.5 °C 1007.7 hPa SSE 11.3 km/h 30.6 km/h 74 % 0 mm
18:03 29.5 °C 24.6 °C 1007.7 hPa SE 14.5 km/h 30.6 km/h 75 % 0 mm
18:08 29.4 °C 24.3 °C 1008 hPa SSE 12.9 km/h 24.1 km/h 74 % 0 mm
18:13 29.4 °C 24.3 °C 1008 hPa SE 8 km/h 22.5 km/h 74 % 0 mm
18:18 29.3 °C 24.2 °C 1008 hPa SSE 4.8 km/h 19.3 km/h 74 % 0 mm
18:23 29.2 °C 24.3 °C 1008 hPa South 6.4 km/h 19.3 km/h 75 % 0 mm
18:28 29.1 °C 24.2 °C 1008 hPa ESE 11.3 km/h 25.7 km/h 75 % 0 mm
18:33 29 °C 24.3 °C 1008 hPa SE 11.3 km/h 25.7 km/h 76 % 0 mm
18:38 29 °C 24.3 °C 1008 hPa SE 11.3 km/h 25.7 km/h 76 % 0 mm
18:43 29.1 °C 24.2 °C 1008 hPa ESE 9.7 km/h 20.9 km/h 75 % 0 mm
18:48 28.9 °C 24 °C 1008 hPa SSE 8 km/h 20.9 km/h 75 % 0 mm
18:53 28.8 °C 24.4 °C 1008 hPa SSE 6.4 km/h 22.5 km/h 77 % 0 mm
18:58 28.9 °C 24.5 °C 1008 hPa ESE 9.7 km/h 22.5 km/h 77 % 0 mm
19:03 28.8 °C 24.4 °C 1008 hPa ESE 4.8 km/h 22.5 km/h 77 % 0 mm
19:08 28.7 °C 24.3 °C 1008 hPa East 11.3 km/h 22.5 km/h 77 % 0 mm
19:13 28.6 °C 24.4 °C 1008 hPa ESE 6.4 km/h 27.4 km/h 78 % 0 mm
19:18 28.3 °C 24.3 °C 1008 hPa SE 6.4 km/h 27.4 km/h 79 % 0 mm
19:23 28.1 °C 24.1 °C 1008.4 hPa ESE 6.4 km/h 27.4 km/h 79 % 0 mm
19:28 27.9 °C 24.1 °C 1008.4 hPa ENE 9.7 km/h 20.9 km/h 80 % 0 mm
19:34 27.8 °C 24 °C 1008 hPa ESE 9.7 km/h 22.5 km/h 80 % 0 mm
19:39 27.7 °C 24.1 °C 1008 hPa East 9.7 km/h 22.5 km/h 81 % 0 mm
19:44 27.6 °C 24 °C 1008 hPa SE 12.9 km/h 22.5 km/h 81 % 0 mm
19:49 27.6 °C 24 °C 1008 hPa SSE 8 km/h 20.9 km/h 81 % 0 mm
19:54 27.6 °C 24.2 °C 1008 hPa SSE 3.2 km/h 20.9 km/h 82 % 0 mm
19:59 27.4 °C 24.1 °C 1008.4 hPa ESE 12.9 km/h 20.9 km/h 82 % 0 mm
20:04 27.4 °C 24.3 °C 1008.4 hPa SE 9.7 km/h 20.9 km/h 83 % 0 mm
20:09 27.3 °C 24.2 °C 1008 hPa SE 6.4 km/h 17.7 km/h 83 % 0 mm
20:14 27.3 °C 24.2 °C 1008 hPa ESE 1.6 km/h 17.7 km/h 83 % 0 mm
20:19 27.2 °C 24.3 °C 1008.4 hPa SSE 6.4 km/h 17.7 km/h 84 % 0 mm
20:24 27.2 °C 24.3 °C 1008.4 hPa SSE 11.3 km/h 14.5 km/h 84 % 0 mm
20:29 27.2 °C 24.3 °C 1008.4 hPa East 6.4 km/h 17.7 km/h 84 % 0 mm
20:34 27.2 °C 24.3 °C 1008.4 hPa ESE 4.8 km/h 20.9 km/h 84 % 0 mm
20:39 27.2 °C 24.3 °C 1008.4 hPa SE 3.2 km/h 20.9 km/h 84 % 0 mm
20:44 27.2 °C 24.3 °C 1008.4 hPa ESE 3.2 km/h 20.9 km/h 84 % 0 mm
20:49 27.2 °C 24.3 °C 1008.7 hPa SE 3.2 km/h 19.3 km/h 84 % 0 mm
20:54 27.2 °C 24.3 °C 1008.4 hPa SE 4.8 km/h 17.7 km/h 84 % 0 mm
20:59 27.1 °C 24.4 °C 1008.7 hPa ESE 4.8 km/h 17.7 km/h 85 % 0 mm
21:04 27.1 °C 24.4 °C 1008.4 hPa ESE 8 km/h 14.5 km/h 85 % 0 mm
21:09 27 °C 24.3 °C 1008.7 hPa SE 3.2 km/h 17.7 km/h 85 % 0 mm
21:14 26.9 °C 24.4 °C 1008.7 hPa SSE 8 km/h 17.7 km/h 86 % 0 mm
21:19 26.9 °C 24.4 °C 1008.7 hPa SE 9.7 km/h 17.7 km/h 86 % 0 mm
21:24 26.8 °C 24.3 °C 1008.7 hPa ESE 1.6 km/h 14.5 km/h 86 % 0 mm
21:29 26.8 °C 24.3 °C 1008.7 hPa East 3.2 km/h 16.1 km/h 86 % 0 mm
21:34 26.8 °C 24.3 °C 1008.7 hPa SE 11.3 km/h 16.1 km/h 86 % 0 mm
21:39 26.8 °C 24.3 °C 1008.7 hPa SE 4.8 km/h 16.1 km/h 86 % 0 mm
21:44 26.8 °C 24.3 °C 1009 hPa South 6.4 km/h 20.9 km/h 86 % 0 mm
21:49 26.8 °C 24.3 °C 1009 hPa SSE 9.7 km/h 20.9 km/h 86 % 0 mm
21:54 26.8 °C 24.3 °C 1009 hPa SE 8 km/h 22.5 km/h 86 % 0 mm
21:59 26.8 °C 24.3 °C 1009 hPa South 11.3 km/h 22.5 km/h 86 % 0 mm
22:04 26.8 °C 24.3 °C 1009 hPa SE 4.8 km/h 22.5 km/h 86 % 0 mm
22:09 26.8 °C 24.1 °C 1009 hPa SSE 12.9 km/h 24.1 km/h 85 % 0 mm
22:14 26.8 °C 24.1 °C 1009 hPa ESE 11.3 km/h 24.1 km/h 85 % 0 mm
22:19 26.7 °C 24 °C 1009 hPa SE 4.8 km/h 24.1 km/h 85 % 0 mm
22:24 26.7 °C 24.2 °C 1009 hPa SSE 9.7 km/h 20.9 km/h 86 % 0 mm
22:29 26.7 °C 24.2 °C 1009.4 hPa SE 8 km/h 17.7 km/h 86 % 0 mm
22:34 26.7 °C 24.2 °C 1009 hPa SE 4.8 km/h 16.1 km/h 86 % 0 mm
22:39 26.6 °C 24.1 °C 1009.4 hPa ESE 14.5 km/h 17.7 km/h 86 % 0 mm
22:44 26.6 °C 24.1 °C 1009.4 hPa ESE 12.9 km/h 17.7 km/h 86 % 0 mm
22:49 26.6 °C 24.1 °C 1009.4 hPa SE 8 km/h 19.3 km/h 86 % 0 mm
22:54 26.6 °C 24.1 °C 1009.4 hPa ESE 1.6 km/h 19.3 km/h 86 % 0 mm
22:59 26.6 °C 24.1 °C 1009.4 hPa SSE 12.9 km/h 19.3 km/h 86 % 0 mm
23:04 26.7 °C 24.2 °C 1009.4 hPa SE 11.3 km/h 19.3 km/h 86 % 0 mm
23:09 26.7 °C 24 °C 1009.4 hPa ESE 4.8 km/h 19.3 km/h 85 % 0 mm
23:14 26.7 °C 24 °C 1009.4 hPa SE 8 km/h 19.3 km/h 85 % 0 mm
23:19 26.7 °C 24 °C 1009.4 hPa SE 4.8 km/h 20.9 km/h 85 % 0 mm
23:24 26.7 °C 24 °C 1009.4 hPa SE 11.3 km/h 20.9 km/h 85 % 0 mm
23:29 26.7 °C 24 °C 1009.4 hPa SSE 6.4 km/h 20.9 km/h 85 % 0 mm
23:34 26.7 °C 24 °C 1009.4 hPa SSE 9.7 km/h 17.7 km/h 85 % 0 mm
23:40 26.8 °C 24.1 °C 1009.4 hPa ESE 4.8 km/h 17.7 km/h 85 % 0 mm
23:44 26.8 °C 24.1 °C 1009.4 hPa South 9.7 km/h 16.1 km/h 85 % 0 mm
23:50 26.8 °C 24.1 °C 1009.4 hPa SE 4.8 km/h 14.5 km/h 85 % 0 mm
23:54 26.8 °C 24.1 °C 1009.4 hPa SSE 6.4 km/h 14.5 km/h 85 % 0 mm
23:59 26.8 °C 24.1 °C 1009.4 hPa South 16.1 km/h 16.1 km/h 85 % 0 mm
Spring, Texas: Villages of Bridgestone
Compliments of Weather Underground - 2.75 mb

Script developed by  Jim McMurry - jmcmurry@mwt.net Adapted for the template by  Wim van der Kuil - Leuven-Template.eu

You find our weather info also at:

UK Metoffice

WeatherCloud

Weather Underground

Mid-South Weather Network

AWEKAS

Citizen Weather Observer Program (CWOP)

HAMweather, WeatherForYou, PWS Weather

Equipment we use:

Weather-station
Davis Vantage Vue

Weather-program
Meteohub

Weather-server
Debian 7.9 x86 (Guest)

Provider
DreamHost

Davis Vantage Vue

Meteohub

Debian 7.9 x86 (Guest)

DreamHost